Regional Weather Roundup
Issued by NWS

Home | Current Version | Previous Version | Graphics & Text | Print | Product List | Glossary On
Versions: 1 2 3 4 5 6 7 8 9 10 11 12 13 14 15 16 17 18 19 20 21 22 23 24 25 26 27 28 29 30 31 32 33 34 35 36 37 38 39 40 41 42 43 44 45 46 47 48 49 50
000
ASUS43 KMPX 202110
RWRMN
WEATHER ROUNDUP FOR MINNESOTA
NATIONAL WEATHER SERVICE TWIN CITIES/CHANHASSEN MN
400 PM CDT WED AUG 20 2014


NOTE: "FAIR" INDICATES FEW OR NO CLOUDS BELOW 12,000 FEET WITH NO
SIGNIFICANT WEATHER AND/OR OBSTRUCTIONS TO VISIBILITY. N/A MEANS
CURRENT SKY AND/OR WEATHER CONDITIONS ARE NOT AVAILABLE.

MNZ060>063-068>070-202200-
   Twin Cities Metro

CITY           SKY/WX    TMP DP  RH WIND       PRES   REMARKS
TWIN CITIES    CLOUDY    82  65  56 SE9       29.85S
ST PAUL        PTSUNNY   81  64  56 E8        29.85F
CRYSTAL        PTSUNNY   82  62  50 VRB3      29.83F
BLAINE         PTSUNNY   81  66  61 E8        29.85F
LAKEVILLE      CLOUDY    79  66  65 CALM      29.85F
EDEN PRAIRIE   CLOUDY    83  64  52 SE6       29.84S
SOUTH ST PAUL  PTSUNNY   81  64  55 SE3       29.85F
LAKE ELMO      FAIR      79  64  61 SE5       29.87F
$$
MNZ001>005-007-008-013>017-022>024-027-028-202200-
   Northwest Minnesota

CITY           SKY/WX    TMP DP  RH WIND       PRES   REMARKS
BEMIDJI        PTSUNNY   78  63  61 SE8       29.86S
HALLOCK        PTSUNNY   82  64  54 S13       29.78S
ROSEAU         MOSUNNY   81  64  57 S10       29.82F
WARROAD        SUNNY     79  66  65 SE10      29.84S
THIEF RVR FALL MOSUNNY   81  64  57 SE7       29.82S
CROOKSTON      PTSUNNY   82  63  51 S13       29.80F
FOSSTON        PTSUNNY   81  64  57 S7        29.84S
DETROIT LAKES  CLOUDY    79  64  61 SE10      29.85S
MOORHEAD       PTSUNNY   82  72  69 SE9       29.79F
PARK RAPIDS    PTSUNNY   78  62  57 SE13      29.86S
MAHNOMEN       FAIR      77  64  64 SE9       29.83S
$$
MNZ006-009>011-018-025>026-202200-
   North Central Minnesota

CITY           SKY/WX    TMP DP  RH WIND       PRES   REMARKS
BAUDETTE       PTSUNNY   78  62  57 E7        29.86F
FLAG ISLAND    MOSUNNY   75  63  64 S7        29.86R
INTL FALLS     PTSUNNY   75  58  55 VRB7      29.89R
WASKISH        MOSUNNY   79  64  61 CALM      29.86F
BIG FORK       SUNNY    N/A N/A N/A S7        29.89F
LONGVILLE      PTSUNNY   75  64  69 SE6       29.88S
GRAND RAPIDS   CLOUDY    72  59  64 SE6       29.90S
CRANE LAKE     MOSUNNY   72  61  68 CALM      29.91S
ORR            PTSUNNY   77  55  47 S5        29.88R
COOK           PTSUNNY   73  59  60 CALM      29.90R
WALKER         FAIR      74  64  71 E6        29.87S
$$
MNZ012-019>021-037-202200-
   Northeast Minnesota

CITY           SKY/WX    TMP DP  RH WIND       PRES   REMARKS
DULUTH         PTSUNNY   70  57  63 S5        29.91F
ELY            MOSUNNY   72  57  60 CALM      29.91S
HIBBING        CLOUDY    73  59  61 SW6       29.90R
EVELETH        CLOUDY    72  59  64 SE7       29.92R
DULUTH HARBOR  CLOUDY    68  64  88 NE3       29.91S
TWO HARBORS    MOSUNNY   72  59  64 CALM      29.90R
SILVER BAY     SUNNY     66  63  88 CALM      29.91S
GRAND MARAIS     N/A     64  60  87 E5        29.92R
G MARAIS ARPRT CLOUDY    61  55  82 CALM      29.95S
$$
MNZ029>031-032-039>041-046>048-054>057-064-202200-
   West Central Minnesota

CITY           SKY/WX    TMP DP  RH WIND       PRES   REMARKS
FERGUS FALLS   PTSUNNY   81  63  54 SE9       29.80F
WHEATON        MOSUNNY   79  68  69 SE8       29.79F
MORRIS         MOSUNNY   82  68  61 SE9       29.80S
ALEXANDRIA     PTSUNNY   79  66  64 E13       29.85F
ELBOW LAKE     FAIR      79  66  64 SE13      29.81F
WADENA         CLOUDY    79  64  61 SE12      29.85S
GLENWOOD       CLOUDY    82  66  57 SE9       29.84F
APPLETON       MOSUNNY   82  64  54 SE13      29.79S
BENSON         MOSUNNY   82  66  57 S12G18    29.81S
ORTONVILLE     PTSUNNY   81  66  61 SE13      29.78F
MADISON        PTSUNNY   82  70  65 SE10      29.79S
WILLMAR        FAIR      81  64  57 SE12      29.83F
$$
MNZ033>034-036-042>043-049>051-058-059-202200-
   Central Minnesota

CITY           SKY/WX    TMP DP  RH WIND       PRES   REMARKS
ST CLOUD       PTSUNNY   81  64  56 E5        29.85F
SAUK CENTRE    MOCLDY    82  66  59 SE8       29.85S
PAYNESVILLE    CLOUDY    79  64  59 E9        29.84F HAZE
AITKIN         CLOUDY    77  64  65 SE6       29.88S
PINE RIVER     PTSUNNY   75  64  69 SE7       29.91S
BRAINERD       PTSUNNY   75  63  66 VRB5      29.88S
STAPLES        CLOUDY    79  64  61 SE6       29.86F
LONG PRAIRIE   PTSUNNY   79  64  61 SE9       29.86F
LITTLE FALLS   CLOUDY    77  63  61 E6        29.86F
LITCHFIELD     PTSUNNY   84  66  54 SE6       29.84F
BUFFALO        CLOUDY    82  61  49 E7        29.86S
MAPLE LAKE     CLOUDY    80  67  64 E3        29.86S
$$
MNZ037-044-045-052-053-202200-
   East Central Minnesota

CITY           SKY/WX    TMP DP  RH WIND       PRES   REMARKS
PRINCETON      PTSUNNY   81  66  61 E6        29.86F
MORA           PTSUNNY   73  61  64 SE3       29.90S
CAMBRIDGE      PTSUNNY   81  64  57 CALM      29.85F
RUSH CITY      PTSUNNY   76  63  64 CALM      29.89R
MOOSE LAKE     CLOUDY    73  61  64 CALM      29.88S
HINCKLEY       CLOUDY    73  63  68 CALM      29.90R
CLOQUET        CLOUDY    70  57  64 SE5       29.91S
MCGREGOR       CLOUDY    72  63  73 SE7       29.90S
$$
MNZ071>073-080-081-089-090-097-098-202200-
   Southwest Minnesota

CITY           SKY/WX    TMP DP  RH WIND       PRES   REMARKS
MONTEVIDEO     MOSUNNY   81  70  69 S9G17     29.81S
GRANITE FALLS  MOSUNNY   82  67  60 SE10      29.81S
CANBY          PTSUNNY   81  69  65 E9        29.79S
MARSHALL       MOSUNNY   82  66  57 SE15      29.79S
REDWOOD FALLS  PTSUNNY   86  66  51 SE13      29.80F
OLIVIA         PTSUNNY   82  64  54 SE10      29.81F
PIPESTONE      MOSUNNY   79  70  73 S9        29.81F
WINDOM         PTSUNNY   81  68  65 SE9       29.83R
WORTHINGTON    MOSUNNY   81  19  10 S12       29.84F
JACKSON        PTSUNNY   81  64  57 SE9       29.84S
TRACY          PTSUNNY   83  69  62 SE13      29.82S
SLAYTON        MOSUNNY   80  68  65 CALM      29.83S
$$
MNZ065>067-074>077-082>085-091>093-202200-
   South Central Minnesota

CITY           SKY/WX    TMP DP  RH WIND       PRES   REMARKS
MANKATO        PTSUNNY   82  66  57 S7        29.83F
NEW ULM        PTSUNNY   81  66  61 S9        29.82S
ST JAMES       MOSUNNY   84  66  54 SE8       29.83S
FAIRMONT       MOSUNNY   81  66  61 S12       29.84S
GLENCOE        PTSUNNY   84  63  48 E7        29.83F
FARIBAULT      CLOUDY    84  61  45 CALM      29.85F
OWATONNA       PTSUNNY   82  64  54 SE3       29.85F
WASECA         PTSUNNY   81  61  50 SE7       29.86S
ALBERT LEA     PTSUNNY   81  66  61 SE9       29.86R
$$
MNZ078>079-086>088-094>096-202200-
   Southeast Minnesota

CITY           SKY/WX    TMP DP  RH WIND       PRES   REMARKS
ROCHESTER      PTSUNNY   83  67  58 VRB6      29.87F
RED WING       PTSUNNY   81  64  57 SE5       29.84F
STANTON        PTSUNNY   83  62  49 CALM      29.83F
DODGE CENTER   CLOUDY    81  68  65 S5        29.87S
WINONA         MOSUNNY   79  64  61 CALM      29.86S
AUSTIN         PTSUNNY   81  66  61 S7        29.85F
PRESTON        PTSUNNY   80  70  72 CALM      29.87F
$$
ABBREVIATIONS USED IN REMARKS
   TC - TEMPERATURES IN CELSIUS
  WCI - WIND CHILL INDEX
   HX - HEAT INDEX
  VSB - VISIBILITY
$$



USA.gov is the U.S. government's official web portal to all federal, state and local government web resources and services.